Baker, MT

6:43 PM MDT on August 17, 2017 (GMT -0600)
Baker Municipal

Weather History for KBHK - February, 2014

Change the Weather History Date:

Saturday, February 22, 2014

  Actual Average Record
Temperature  
Mean Temperature 14 °F -  
Max Temperature 19 °F 22 °F 64 °F (2002)
Min Temperature 10 °F -6 °F -9 °F (2015)
Degree Days  
Heating Degree Days 50    
Moisture  
Dew Point 8 °F    
Average Humidity 73    
Maximum Humidity 81    
Minimum Humidity 62    
Precipitation  
Precipitation 0.00 in - - ()
Sea Level Pressure  
Sea Level Pressure 30.08 in    
Wind  
Wind Speed 10 mph (NW)    
Max Wind Speed 17 mph    
Max Gust Speed 22 mph    
Visibility 6 miles    
Events Snow    
Averages and records for this station are not official NWS values.
T = Trace of Precipitation, MM = Missing Value Source: NWS Daily Summary

Daily Weather History Graph

Daily Weather History Graph

Search for Another Location

Airport or City:

Trip Planner

Search our weather history database for the weather conditions in past years. The results will help you decide how hot, cold, wet, or windy it might be!

Date:

Astronomy

Feb. 22, 2014 Rise Set
Actual Time 6:48 AM MST 5:33 PM MST
Civil Twilight 6:18 AM MST 6:03 PM MST
Nautical Twilight 5:43 AM MST 6:38 PM MST
Astronomical Twilight 5:08 AM MST 7:13 PM MST
Moon 12:54 AM MST (2/22) 10:36 AM MST (2/22)
Length of Visible Light 11h 45m
Length of Day
10h 44m
Waning Gibbous, 49% of the Moon is Illuminated
Feb 22
Waning Gibbous
Mar 1
New
Mar 8
First Quarter
Mar 16
Full
Mar 23
Last Quarter

Hourly Weather History & Observations

Time (MST) Temp. Windchill Dew Point Humidity Pressure Visibility Wind Dir Wind Speed Gust Speed Precip Events Conditions
12:39 AM 18.0 °F 12.7 °F 12.0 °F 78% 29.90 in 10.0 mi North 3.5 mph - N/A   Overcast
12:51 AM 18.0 °F 12.7 °F 12.0 °F 78% 29.99 in 10.0 mi NNW 3.5 mph - N/A   Overcast
1:51 AM 17.1 °F 7.6 °F 12.0 °F 81% 30.01 in 10.0 mi NNE 6.9 mph - N/A   Overcast
2:36 AM 12.9 °F 3.8 °F 5.0 °F 71% 29.93 in 8.0 mi North 5.8 mph - 0.00 in Snow Light Snow
2:51 AM 12.9 °F 6.9 °F 5.0 °F 71% 30.04 in 5.0 mi NNW 3.5 mph - 0.00 in Snow Light Snow
2:56 AM 12.9 °F - 5.0 °F 71% 29.93 in 2.5 mi North - - 0.00 in Snow Light Snow
3:20 AM 12.9 °F 0.7 °F 8.1 °F 81% 29.93 in 5.0 mi NNW 9.2 mph - 0.00 in Snow Light Snow
3:28 AM 12.9 °F 0.7 °F 8.1 °F 81% 29.93 in 6.0 mi NNW 9.2 mph - 0.00 in Snow Light Snow
3:40 AM 12.9 °F -0.2 °F 7.0 °F 77% 29.93 in 9.0 mi NNW 10.4 mph - 0.00 in   Overcast
3:51 AM 10.9 °F -2.6 °F 6.1 °F 81% 30.04 in 10.0 mi North 10.4 mph - 0.00 in   Overcast
4:16 AM 10.9 °F -3.4 °F 6.1 °F 81% 29.94 in 10.0 mi NNW 11.5 mph - N/A   Mostly Cloudy
4:51 AM 10.0 °F -3.7 °F 5.0 °F 80% 30.08 in 10.0 mi NW 10.4 mph - N/A   Mostly Cloudy
5:51 AM 10.9 °F 0.2 °F - N/A% 30.10 in 10.0 mi NW 6.9 mph - N/A   Overcast
6:51 AM 10.9 °F -0.8 °F - N/A% 30.11 in 10.0 mi NW 8.1 mph - N/A   Mostly Cloudy
7:51 AM 12.0 °F 0.5 °F - N/A% 30.13 in 10.0 mi NW 8.1 mph - N/A   Mostly Cloudy
7:59 AM 12.0 °F 0.5 °F - N/A% 30.00 in 10.0 mi NW 8.1 mph - N/A   Overcast
8:08 AM 12.0 °F -1.3 °F - N/A% 30.01 in 9.0 mi WNW 10.4 mph - N/A   Overcast
8:38 AM 14.0 °F 1.2 °F - N/A% 30.02 in 5.0 mi WNW 10.4 mph - 0.00 in Snow Light Snow
8:51 AM 14.0 °F 1.2 °F - N/A% 30.15 in 4.0 mi NW 10.4 mph - 0.00 in Snow Light Snow
9:21 AM 15.1 °F 1.8 °F - N/A% 30.02 in 2.5 mi WNW 11.5 mph - 0.00 in Snow Light Snow
9:31 AM 15.1 °F 1.1 °F - N/A% 30.02 in 3.0 mi WNW 12.7 mph - 0.00 in Snow Light Snow
9:51 AM 16.0 °F 1.1 °F 9.0 °F 74% 30.16 in 3.0 mi NW 15.0 mph - 0.00 in Snow Light Snow
10:02 AM 16.0 °F 0.6 °F 9.0 °F 74% 30.03 in 2.5 mi WNW 16.1 mph - 0.00 in Snow Light Snow
10:15 AM 16.0 °F 2.3 °F 10.0 °F 77% 30.03 in 3.0 mi WNW 12.7 mph - 0.00 in Snow Light Snow
10:30 AM 17.1 °F 3.6 °F 10.0 °F 74% 30.04 in 2.5 mi NW 12.7 mph - 0.00 in Snow Light Snow
10:41 AM 17.1 °F 2.0 °F 10.0 °F 74% 30.04 in 3.0 mi NW 16.1 mph 21.9 mph 0.00 in Snow Light Snow
10:48 AM 15.8 °F 0.9 °F 8.6 °F 73% 30.04 in 2.5 mi NW 15.0 mph - 0.00 in Snow Light Snow
10:51 AM 16.0 °F 1.1 °F 9.0 °F 74% 30.17 in 2.5 mi NW 15.0 mph - 0.00 in Snow Light Snow
10:56 AM 16.0 °F 0.1 °F 9.0 °F 74% 30.04 in 4.0 mi NW 17.3 mph - 0.00 in Snow Light Snow
11:24 AM 17.1 °F 3.6 °F 10.0 °F 74% 30.04 in 1.8 mi NW 12.7 mph - 0.00 in Snow Light Snow
11:42 AM 18.0 °F 4.2 °F 10.0 °F 71% 30.04 in 3.0 mi NW 13.8 mph - 0.00 in Snow Light Snow
11:51 AM 18.0 °F 3.6 °F 9.0 °F 68% 30.17 in 6.0 mi NW 15.0 mph - 0.00 in Snow Light Snow
11:56 AM 18.0 °F 3.6 °F 10.0 °F 71% 30.04 in 6.0 mi NW 15.0 mph - 0.00 in Snow Light Snow
12:20 PM 18.0 °F 3.6 °F 10.9 °F 74% 30.04 in 4.0 mi NW 15.0 mph - 0.00 in Snow Light Snow
12:51 PM 19.0 °F 5.6 °F 10.0 °F 68% 30.17 in 8.0 mi WNW 13.8 mph - 0.00 in Snow Light Snow
1:24 PM 18.0 °F 4.2 °F 8.1 °F 65% 30.04 in 9.0 mi NW 13.8 mph - 0.00 in   Overcast
1:51 PM 18.0 °F 3.1 °F 10.0 °F 71% 30.17 in 5.0 mi NW 16.1 mph - 0.00 in Snow Light Snow
2:51 PM 18.0 °F 3.6 °F 10.0 °F 71% 30.18 in 3.0 mi NW 15.0 mph - 0.00 in Snow Light Snow
2:58 PM 17.1 °F 3.6 °F 10.0 °F 74% 30.05 in 2.5 mi NW 12.7 mph - 0.00 in Snow Light Snow
3:03 PM 18.0 °F 3.6 °F 10.0 °F 71% 30.05 in 4.0 mi NW 15.0 mph 21.9 mph 0.00 in Snow Light Snow
3:09 PM 18.0 °F 3.1 °F 10.0 °F 71% 30.05 in 3.0 mi NW 16.1 mph - 0.00 in Snow Light Snow
3:13 PM 17.1 °F 2.0 °F 10.0 °F 74% 30.05 in 1.8 mi WNW 16.1 mph - 0.00 in Snow Light Snow
3:22 PM 18.0 °F 3.6 °F 9.0 °F 68% 30.05 in 2.0 mi WNW 15.0 mph - 0.00 in Snow Light Snow
3:27 PM 18.0 °F 3.1 °F 8.1 °F 65% 30.05 in 9.0 mi NW 16.1 mph - 0.00 in   Overcast
3:51 PM 18.0 °F 3.6 °F 7.0 °F 62% 30.20 in 10.0 mi WNW 15.0 mph - 0.00 in   Overcast
4:29 PM 16.0 °F 0.6 °F 9.0 °F 74% 30.07 in 3.0 mi NW 16.1 mph - 0.00 in Snow Light Snow
4:38 PM 17.1 °F 2.5 °F 9.0 °F 71% 30.07 in 6.0 mi NW 15.0 mph - 0.00 in Snow Light Snow
4:51 PM 17.1 °F 2.0 °F 9.0 °F 71% 30.22 in 7.0 mi NW 16.1 mph - 0.00 in Snow Light Snow
5:00 PM 16.0 °F 1.1 °F 9.0 °F 74% 30.08 in 1.5 mi NW 15.0 mph - 0.00 in Snow Light Snow
5:11 PM 16.0 °F 1.7 °F 10.0 °F 77% 30.08 in 3.0 mi NW 13.8 mph - 0.00 in Snow Light Snow
5:51 PM 15.1 °F 1.1 °F 8.1 °F 74% 30.25 in 10.0 mi NW 12.7 mph - 0.00 in   Overcast
6:51 PM 15.1 °F 1.8 °F 6.1 °F 68% 30.28 in 10.0 mi NW 11.5 mph - N/A   Overcast
7:51 PM 15.1 °F 2.5 °F 6.1 °F 68% 30.28 in 10.0 mi NNW 10.4 mph - N/A   Overcast
8:51 PM 14.0 °F -0.2 °F 7.0 °F 74% 30.30 in 9.0 mi NW 12.7 mph - N/A   Overcast
9:07 PM 14.0 °F 0.5 °F 8.1 °F 77% 30.15 in 10.0 mi NW 11.5 mph - N/A   Overcast
9:51 PM 14.0 °F -0.2 °F 6.1 °F 71% 30.30 in 10.0 mi NW 12.7 mph - 0.00 in   Overcast
10:51 PM 12.9 °F -0.9 °F 3.9 °F 67% 30.32 in 10.0 mi NW 11.5 mph - 0.00 in   Overcast
11:51 PM 12.9 °F -1.6 °F 6.1 °F 74% 30.32 in 5.0 mi NW 12.7 mph - 0.00 in Snow Light Snow